Regional Weather Roundup
Issued by NWS

Home | Current Version | Previous Version | Text Only | Print | Product List | Glossary Off
Versions: 1 2 3 4 5 6 7 8 9 10 11 12 13 14 15 16 17 18 19 20 21 22 23 24 25 26 27 28 29 30 31 32 33 34 35 36 37 38 39 40 41 42 43 44 45 46 47 48 49 50

000
ASUS43 KDTX 020210
RWRMI
MICHIGAN HOURLY REGIONAL WEATHER ROUNDUP
NATIONAL WEATHER SERVICE DETROIT/PONTIAC MI
1000 PM EDT WED JUL 01 2015

NOTE: "FAIR" INDICATES FEW OR NO CLOUDS BELOW 12,000 FEET WITH NO
SIGNIFICANT WEATHER AND/OR OBSTRUCTION TO VISIBILITY.

MIZ047>049-052>055-059>063-066>070-074>076-081>083-020300-
SOUTHEAST LOWER MICHIGAN

CITY           SKY/WX    TMP DP  RH WIND       PRES   REMARKS
ADRIAN         MOCLDY    63  56  78 N7        29.95R
ALMA           CLOUDY    63  56  77 N10G16    29.96R
ANN ARBOR      MOCLDY    62  55  77 NE6       29.94R
BAD AXE        CLOUDY    60  56  87 CALM      29.97R
CARO           CLOUDY    62  59  88 CALM      29.94R
DETROIT CITY   MOCLDY    65  56  72 N6        29.95R
DETROIT        MOCLDY    65  54  67 N6        29.95R
FLINT          CLOUDY    64  57  78 CALM      29.95R
GROSSE ILE     MOCLDY    66  57  72 N5        29.93R
HILLSDALE      CLOUDY    63  56  78 N3        29.95S
HOWELL         MOCLDY    59  56  89 CALM      29.95S

CITY           SKY/WX    TMP DP  RH WIND       PRES   REMARKS
JACKSON        MOCLDY    61  55  81 CALM      29.95R
LAMBERTVILLE   MOCLDY    67  58  74 CALM      29.94R
LANSING        CLOUDY    62  54  74 CALM      29.96R
LAPEER         MOCLDY    57  55  93 S3        29.96R
MASON          CLOUDY    58  55  89 CALM      29.96R
MONROE         MOCLDY    64  57  79 CALM      29.93R
MT. CLEMENS    PTCLDY    62  58  88 NE5       29.93R
PONTIAC        MOCLDY    61  55  81 CALM      29.94R
PORT HOPE        N/A     60  55  83 N7        29.94S
PORT HURON     MOCLDY    57  55  94 CALM      29.97R
TRI CITIES     CLOUDY    64  55  72 N8        29.96R
MIDLAND        MOCLDY    60  54  79 NW5       29.96R
TROY           MOCLDY    64  56  76 CALM      29.97R
SAGINAW HB     CLOUDY    63  57  82 SW6       29.95R
$$
MIZ043>046-050>051-056>058-064>065-071>073-077>080-020300-
SOUTHWEST LOWER MICHIGAN

CITY           SKY/WX    TMP DP  RH WIND       PRES   REMARKS
BATTLE CREEK   CLOUDY    61  53  75 NW6       29.97R
BENTON HARBOR  CLOUDY    57  53  86 CALM      29.97F
BIG RAPIDS     CLOUDY    60  51  70 N3        29.98R
COLDWATER      CLOUDY    60  53  77 NW6       29.96R
FREMONT        FAIR      55  53  94 NW5       29.99R FOG
HOLLAND        CLOUDY    58  52  80 NW5       29.99R
GRAND RAPIDS   MOCLDY    62  52  69 NW6       29.97R
IONIA          FAIR      62  53  73 NW5       29.96R
KALAMAZOO      CLOUDY    59  52  77 W5        29.98R
LUDINGTON      CLEAR     53  50  90 N3        30.01R
MARSHALL       CLOUDY    60  54  79 NW5       29.96R
MOUNT PLEASANT MOCLDY    59  53  80 N6        29.97R
MUSKEGON       MOCLDY    58  52  80 N7        29.99R
SOUTH HAVEN    CLOUDY    56  53  88 N3        29.97S
$$
MIZ016>042-020300-
NORTHERN LOWER MICHIGAN

CITY           SKY/WX    TMP DP  RH WIND       PRES   REMARKS
ALPENA         MOCLDY    58  51  78 NW3       29.96R
BEAVER ISLAND  PTCLDY    56  46  70 N3        30.00R
BELLAIRE       PTCLDY    52  49  92 CALM      29.99R
CADILLAC       CLOUDY    55  51  86 CALM      30.00R
CHARLEVOIX     PTCLDY    58  50  75 N8        30.02R
FRANKFORT      CLEAR     52  45  77 CALM      30.00R
GAYLORD        CLEAR     54  50  86 W3        29.98R
GRAYLING       CLOUDY    55  51  88 W3        29.99R
HARBOR SPRINGS PTCLDY    55  47  75 CALM      29.98R
HOUGHTON LAKE  CLOUDY    57  52  83 NW7       29.99R
MANISTEE       CLEAR     52  45  76 CALM      30.01R
OSCODA         CLOUDY    61  55  81 N7        29.95R
PELLSTON       PTCLDY    56  48  74 N8        29.98R
ROGERS CITY    PTCLDY    57  50  78 N8        29.97R
TRAVERSE CITY  PTCLDY    54  50  86 CALM      29.98R
$$
MIZ007>008-015-020300-
EASTERN UPPER MICHIGAN

CITY           SKY/WX    TMP DP  RH WIND       PRES   REMARKS
KINROSS        MOCLDY    50  45  81 NW10      29.98S
MACKINAC ISLAN MOCLDY    56  45  67 N9        29.97S
NEWBERRY       MOCLDY    49  43  78 NW5       30.00S
S. S. MARIE    MOCLDY    50  41  71 W8        29.98R
MUNISING         N/A     51  45  79 CALM      30.01S
$$
MIZ004>006-011>014-085-020300-
CENTRAL UPPER MICHIGAN

CITY           SKY/WX    TMP DP  RH WIND       PRES   REMARKS
MANISTIQUE     PTCLDY    53  41  64 N6        30.00S
ESCANABA       CLEAR     57  39  51 NE5       30.00S
MENOMINEE      CLEAR     61  45  55 E9        30.01R
SAWYER-GWINN   CLEAR     55  41  58 NE5       30.01
$$
MIZ001>003-009>011-084-020300-
WESTERN UPPER MICHIGAN

CITY           SKY/WX    TMP DP  RH WIND       PRES   REMARKS
IRON MOUNTAIN  CLEAR     59  43  55 NE5       30.01R
HOUGHTON       MOCLDY    55  45  68 NW5       30.01S
COPPER HARBOR    N/A     55  50  83 CALM      29.99F
IRONWOOD       CLEAR     55  52  88 CALM      30.00S
$$

ABBREVIATIONS USED IN REMARKS
   TC - TEMPERATURE IN CELSIUS
  WCI - WIND CHILL INDEX
   HX - HEAT INDEX
  VSB - VISIBILITY



USA.gov is the U.S. government's official web portal to all federal, state and local government web resources and services.